FW1946 Weather Reports


Display with metric or nautical units.
time (UTC)temp
F
wind
direction
speed
MPH
gust
MPH
rain 1hr
in
rain 24hr
in
rain mn
in
humidity
%
barometer
mb
20200408181534 58 236 0.0 0.0 0.00 0.00 0.00 53 1.0
20200408180029 57 211 0.0 0.0 0.00 0.00 0.00 53 1.0
20200408174531 56 151 0.0 0.0 0.00 0.00 0.00 54 1.0
20200408173033 54 270 0.0 0.0 0.00 0.00 0.00 57 1.0
20200408171530 52 143 0.0 0.0 0.00 0.00 0.00 60 1.0
20200408170030 50 289 0.0 0.0 0.00 0.00 0.00 63 1.0
20200408164535 49 324 0.0 0.0 0.00 0.00 0.00 66 1.0
20200408163032 48 260 0.0 0.0 0.00 0.00 0.00 67 1.0
20200408161535 47 67 0.0 0.0 0.00 0.00 0.00 70 1.0
20200408160030 45 67 0.0 0.0 0.00 0.00 0.00 73 1.0
20200408154544 43 108 0.0 0.0 0.00 0.00 0.00 77 1.0
20200408153038 42 135 0.0 0.0 0.00 0.00 0.00 80 1.0
20200408151531 40 135 0.0 0.0 0.00 0.00 0.00 83 1.0
20200408150030 37 135 0.0 0.0 0.00 0.00 0.00 86 1.0
20200408144530 34 135 0.0 0.0 0.00 0.00 0.00 87 1.0
20200408143050 33 135 0.0 0.0 0.00 0.00 0.00 88 1.0
20200408141533 32 135 0.0 0.0 0.00 0.00 0.00 88 1.0
20200408140035 32 135 0.0 0.0 0.00 0.00 0.00 88 1.0
20200408134532 32 135 0.0 0.0 0.00 0.00 0.00 87 1.0
20200408133031 32 135 0.0 0.0 0.00 0.00 0.00 86 1.0
20200408131531 33 135 0.0 0.0 0.00 0.00 0.00 86 1.0
20200408130034 34 135 0.0 0.0 0.00 0.00 0.00 86 1.0
20200408124532 34 155 0.0 0.0 0.00 0.00 0.00 85 1.0
20200408123030 34 157 0.0 0.0 0.00 0.00 0.00 84 1.0
20200408121530 35 157 0.0 0.0 0.00 0.00 0.00 84 1.0
20200408120033 35 157 0.0 0.0 0.00 0.00 0.00 84 1.0
20200408114530 34 157 0.0 0.0 0.00 0.00 0.00 84 1.0
20200408113030 35 157 0.0 0.0 0.00 0.00 0.00 84 1.0
20200408111530 35 157 0.0 0.0 0.00 0.00 0.00 82 1.0
20200408104537 38 157 0.0 0.0 0.00 0.00 0.00 80 1.0
20200408103032 38 208 0.0 0.0 0.00 0.00 0.00 80 1.0
20200408101537 37 158 0.0 0.0 0.00 0.00 0.00 80 1.0
20200408100030 38 157 0.0 0.0 0.00 0.00 0.00 78 1.0
20200408094531 39 157 0.0 0.0 0.00 0.00 0.00 77 1.0
20200408093032 40 157 0.0 0.0 0.00 0.00 0.00 76 1.0
20200408090029 41 171 0.0 0.0 0.00 0.00 0.00 76 1.0
20200408084528 41 180 0.0 0.0 0.00 0.00 0.00 76 1.0
20200408083033 42 219 0.0 0.0 0.00 0.00 0.00 74 1.0
20200408080031 43 112 0.0 0.0 0.00 0.00 0.00 74 1.0
20200408074535 42 157 0.0 0.0 0.00 0.00 0.00 75 1.0
20200408073029 43 180 0.0 0.0 0.00 0.00 0.00 74 1.0
20200408071540 43 230 0.0 0.0 0.00 0.00 0.00 73 1.0
20200408070030 44 216 0.0 0.0 0.00 0.00 0.00 72 1.0
20200408064532 45 202 0.0 0.0 0.00 0.00 0.00 70 1.0
20200408063036 45 245 0.0 0.0 0.00 0.00 0.00 68 1.0
20200408061532 46 247 0.0 0.0 0.00 0.00 0.00 65 1.0
20200408060027 49 247 0.0 0.0 0.00 0.00 0.00 62 1.0
20200408054531 50 242 0.0 0.0 0.00 0.00 0.00 60 1.0
20200408053030 52 228 0.0 0.0 0.00 0.00 0.00 59 1.0
20200408051531 52 254 2.0 0.0 0.00 0.00 0.00 58 1.0
20200408050031 51 243 2.0 0.0 0.00 0.00 0.00 58 1.0
20200408044532 51 219 0.0 0.0 0.00 0.00 0.00 57 1.0
20200408043033 51 237 0.0 0.0 0.00 0.00 0.00 57 1.0
20200408041530 53 261 0.0 0.0 0.00 0.00 0.00 56 1.0
20200408040032 53 247 2.0 0.0 0.00 0.00 0.00 56 1.0
20200408034530 53 240 2.0 0.0 0.00 0.00 0.00 57 1.0
20200408033033 53 247 0.0 0.0 0.00 0.00 0.00 55 1.0
20200408031531 54 236 1.0 0.0 0.00 0.00 0.00 54 1.0
20200408030032 54 207 1.0 0.0 0.00 0.00 0.00 53 1.0
20200408024534 55 254 0.0 0.0 0.00 0.00 0.00 51 1.0
20200408023030 57 242 1.0 0.0 0.00 0.00 0.00 48 1.0
20200408021531 58 235 2.0 0.0 0.00 0.00 0.00 46 1.0
20200408020036 59 234 3.0 0.0 0.00 0.00 0.00 45 1.0
20200408014535 60 233 3.0 0.0 0.00 0.00 0.00 44 1.0
20200408013045 61 236 2.0 0.0 0.00 0.00 0.00 43 1.0
20200408011533 61 220 2.0 0.0 0.00 0.00 0.00 42 1.0
20200408010031 62 238 3.0 0.0 0.00 0.00 0.00 41 1.0
20200408004532 62 236 3.0 0.0 0.00 0.00 0.00 41 1.0
20200408003044 62 240 4.0 0.0 0.00 0.00 0.00 40 1.0
20200408001533 63 232 3.0 0.0 0.00 0.00 0.00 40 1.0
20200408000048 63 233 3.0 0.0 0.00 0.00 0.00 40 1.0
20200407234540 63 232 3.0 0.0 0.00 0.00 0.00 39 1.0
20200407233034 63 234 4.0 0.0 0.00 0.00 0.00 39 1.0
20200407231529 63 234 4.0 0.0 0.00 0.00 0.00 39 1.0
20200407230034 63 230 4.0 0.0 0.00 0.00 0.00 40 1.0
20200407224531 62 234 4.0 0.0 0.00 0.00 0.00 41 1.0
20200407223032 63 241 5.0 0.0 0.00 0.00 0.00 41 1.0
20200407221532 63 236 4.0 0.0 0.00 0.00 0.00 41 1.0
20200407220032 62 242 5.0 0.0 0.00 0.00 0.00 42 1.0
20200407214534 61 239 5.0 0.0 0.00 0.00 0.00 43 1.0
20200407213033 61 244 4.0 0.0 0.00 0.00 0.00 42 1.0
20200407211535 60 231 4.0 0.0 0.00 0.00 0.00 42 1.0
20200407210045 60 236 5.0 0.0 0.00 0.00 0.00 42 1.0
20200407204530 62 237 5.0 0.0 0.00 0.00 0.00 41 1.0
20200407203035 61 232 3.0 0.0 0.00 0.00 0.00 40 1.0
20200407201529 61 242 3.0 0.0 0.00 0.00 0.00 40 1.0
20200407200033 61 234 4.0 0.0 0.00 0.00 0.00 39 1.0
20200407194532 60 242 3.0 0.0 0.00 0.00 0.00 39 1.0
20200407193032 59 244 3.0 0.0 0.00 0.00 0.00 39 1.0
20200407191532 59 253 5.0 0.0 0.00 0.00 0.00 39 1.0
20200407190031 57 243 4.0 0.0 0.00 0.00 0.00 40 1.0
20200407184539 56 251 4.0 0.0 0.00 0.00 0.00 43 1.0
20200407183033 55 250 5.0 0.0 0.00 0.00 0.00 44 1.0